FW7743 Weather Reports


Display with metric or nautical units.
time (UTC)temp
F
wind
direction
speed
MPH
gust
MPH
rain 1hr
in
rain 24hr
in
rain mn
in
humidity
%
barometer
mb
20260504050525 48 198 1.0 1.0 0.00 0.00 0.00 65 1010.6
20260504050022 49 206 1.0 2.0 0.00 0.00 0.00 65 1010.6
20260504045519 49 271 2.0 2.0 0.00 0.00 0.00 62 1010.6
20260504045014 49 190 4.0 5.0 0.00 0.00 0.00 62 1010.7
20260504044512 49 219 1.0 2.0 0.00 0.00 0.00 63 1010.5
20260504044009 50 175 3.0 3.0 0.00 0.00 0.00 61 1010.4
20260504043506 50 251 0.0 0.0 0.00 0.00 0.00 61 1010.7
20260504043003 50 259 1.0 2.0 0.00 0.00 0.00 62 1010.6
20260504042500 50 207 1.0 2.0 0.00 0.00 0.00 63 1010.7
20260504041957 50 172 2.0 2.0 0.00 0.00 0.00 59 1010.6
20260504041453 50 202 1.0 2.0 0.00 0.00 0.00 60 1010.6
20260504040948 51 223 0.0 0.0 0.00 0.00 0.00 60 1010.7
20260504040447 51 275 3.0 3.0 0.00 0.00 0.00 59 1010.6
20260504035942 51 187 1.0 2.0 0.00 0.00 0.00 59 1010.6
20260504035440 51 166 1.0 1.0 0.00 0.00 0.00 62 1010.6
20260504034936 50 197 0.0 0.0 0.00 0.00 0.00 62 1010.6
20260504034434 50 178 1.0 1.0 0.00 0.00 0.00 61 1010.7
20260504033931 50 181 2.0 2.0 0.00 0.00 0.00 62 1010.7
20260504033429 50 124 2.0 2.0 0.00 0.00 0.00 62 1010.8
20260504032926 51 176 0.0 0.0 0.00 0.00 0.00 61 1010.8
20260504032422 50 222 0.0 0.0 0.00 0.00 0.00 60 1010.7
20260504031919 50 175 2.0 3.0 0.00 0.00 0.00 59 1010.7
20260504031417 51 234 0.0 0.0 0.00 0.00 0.00 61 1010.9
20260504030913 50 166 2.0 3.0 0.00 0.00 0.00 60 1011.1
20260504030410 51 278 1.0 1.0 0.00 0.00 0.00 60 1010.9
20260504025906 50 292 0.0 1.0 0.00 0.00 0.00 61 1011.1
20260504025403 50 187 2.0 2.0 0.00 0.00 0.00 61 1011.3
20260504024900 50 196 3.0 3.0 0.00 0.00 0.00 61 1011.3
20260504024356 50 236 0.0 0.0 0.00 0.00 0.00 63 1011.2
20260504023854 50 132 3.0 3.0 0.00 0.00 0.00 61 1010.9
20260504023350 50 175 0.0 1.0 0.00 0.00 0.00 60 1011.2
20260504022845 50 328 1.0 1.0 0.00 0.00 0.00 63 1011.6
20260504022343 50 282 1.0 1.0 0.00 0.00 0.00 62 1011.5
20260504021839 50 40 1.0 1.0 0.00 0.00 0.00 62 1011.7
20260504021337 51 264 2.0 2.0 0.00 0.00 0.00 61 1011.8
20260504020833 51 15 0.0 0.0 0.00 0.00 0.00 60 1011.8
20260504020330 51 57 3.0 3.0 0.00 0.00 0.00 59 1011.9
20260504015826 50 358 0.0 1.0 0.00 0.00 0.00 61 1011.5
20260504015323 51 326 0.0 0.0 0.00 0.00 0.00 61 1011.8
20260504014819 50 26 0.0 1.0 0.00 0.00 0.00 57 1011.7
20260504014315 50 208 0.0 0.0 0.00 0.00 0.00 62 1011.2
20260504013813 50 42 0.0 1.0 0.00 0.00 0.00 61 1011.4
20260504013311 51 284 1.0 1.0 0.00 0.00 0.00 61 1011.3
20260504012807 51 306 1.0 1.0 0.00 0.00 0.00 60 1011.6
20260504012305 51 340 3.0 3.0 0.00 0.00 0.00 58 1011.2
20260504011802 51 65 0.0 1.0 0.00 0.00 0.00 60 1011.2
20260504011258 50 340 0.0 0.0 0.00 0.00 0.00 58 1011.3
20260504010754 49 214 0.0 0.0 0.00 0.00 0.00 63 1011.3
20260504010250 49 351 0.0 0.0 0.00 0.00 0.00 65 1011.3
20260504005747 49 185 2.0 2.0 0.00 0.00 0.00 64 1011.2
20260504005244 49 244 0.0 0.0 0.00 0.00 0.00 67 1011.2
20260504004741 49 236 0.0 1.0 0.00 0.00 0.00 63 1011.1
20260504004238 49 244 1.0 1.0 0.00 0.00 0.00 66 1011.3
20260504003735 49 202 0.0 0.0 0.00 0.00 0.00 66 1010.9
20260504003232 48 206 2.0 2.0 0.00 0.00 0.00 70 1010.8
20260504002729 49 265 1.0 1.0 0.00 0.00 0.00 69 1010.6
20260504002225 49 234 0.0 1.0 0.00 0.00 0.00 68 1010.8
20260504001723 49 229 1.0 1.0 0.00 0.00 0.00 68 1010.6
20260504001220 49 247 3.0 3.0 0.00 0.00 0.00 66 1010.4
20260504000717 49 282 1.0 1.0 0.00 0.00 0.00 65 1010.7
20260504000214 50 205 3.0 3.0 0.00 0.00 0.00 68 1010.9
20260503235712 50 179 1.0 1.0 0.00 0.00 0.00 63 1011.3
20260503235209 50 127 1.0 1.0 0.00 0.00 0.00 66 1011.3
20260503234707 50 170 2.0 2.0 0.00 0.00 0.00 62 1011.1
20260503234205 50 56 3.0 3.0 0.00 0.00 0.00 63 1011.3
20260503233701 50 356 1.0 1.0 0.00 0.00 0.00 62 1011.2
20260503233157 50 68 1.0 3.0 0.00 0.00 0.00 60 1011.3
20260503232654 51 45 4.0 9.0 0.00 0.00 0.00 59 1011.3
20260503232151 51 45 9.0 13.0 0.00 0.00 0.00 53 1011.1
20260503231649 52 313 0.0 0.0 0.00 0.00 0.00 54 1011.2
20260503231145 52 326 1.0 1.0 0.00 0.00 0.00 52 1010.7
20260503230642 52 277 0.0 0.0 0.00 0.00 0.00 52 1010.7
20260503230139 52 236 1.0 1.0 0.00 0.00 0.00 51 1010.7
20260503225637 52 167 2.0 2.0 0.00 0.00 0.00 52 1010.6
20260503225136 52 117 4.0 5.0 0.00 0.00 0.00 51 1010.5
20260503224634 52 72 2.0 2.0 0.00 0.00 0.00 51 1010.4
20260503224132 52 175 1.0 2.0 0.00 0.00 0.00 52 1010.5
20260503223630 52 130 1.0 1.0 0.00 0.00 0.00 52 1010.6
20260503223125 52 155 0.0 1.0 0.00 0.00 0.00 51 1010.4
20260503222623 52 57 0.0 0.0 0.00 0.00 0.00 52 1010.5
20260503222121 52 133 5.0 5.0 0.00 0.00 0.00 51 1010.5
20260503221619 52 171 2.0 3.0 0.00 0.00 0.00 52 1010.4
20260503221116 52 181 1.0 2.0 0.00 0.00 0.00 52 1010.6
20260503220613 52 191 2.0 2.0 0.00 0.00 0.00 51 1010.5
20260503220109 53 237 0.0 1.0 0.00 0.00 0.00 53 1010.6
20260503215606 53 31 2.0 2.0 0.00 0.00 0.00 51 1010.6
20260503215103 52 15 2.0 3.0 0.00 0.00 0.00 51 1010.9
20260503214602 52 143 3.0 3.0 0.00 0.00 0.00 51 1010.8
20260503214057 53 65 2.0 2.0 0.00 0.00 0.00 49 1010.5
20260503213556 54 349 3.0 3.0 0.00 0.00 0.00 51 1010.6
20260503213052 53 40 1.0 2.0 0.00 0.00 0.00 50 1010.6
20260503212550 53 85 4.0 5.0 0.00 0.00 0.00 50 1010.5
20260503212047 53 303 0.0 0.0 0.00 0.00 0.00 51 1010.7
20260503211544 52 67 2.0 2.0 0.00 0.00 0.00 51 1011.1
20260503211039 52 119 1.0 2.0 0.00 0.00 0.00 52 1010.8
20260503210537 53 0 3.0 5.0 0.00 0.00 0.00 49 1010.8
20260503210032 53 45 2.0 3.0 0.00 0.00 0.00 51 1010.9
20260503205529 52 36 4.0 6.0 0.00 0.00 0.00 49 1010.9
20260503205026 52 4 2.0 2.0 0.00 0.00 0.00 51 1010.8
20260503204523 52 35 2.0 2.0 0.00 0.00 0.00 53 1010.8
20260503204020 52 71 3.0 5.0 0.00 0.00 0.00 52 1010.7
20260503203517 52 86 0.0 0.0 0.00 0.00 0.00 54 1010.9
20260503203014 52 313 1.0 2.0 0.00 0.00 0.00 53 1011.1
20260503202512 52 304 5.0 6.0 0.00 0.00 0.00 51 1011.1
20260503202010 52 21 3.0 3.0 0.00 0.00 0.00 53 1010.9
20260503201508 52 16 3.0 5.0 0.00 0.00 0.00 52 1010.8
20260503201004 52 122 2.0 3.0 0.00 0.00 0.00 52 1010.8
20260503200500 52 13 4.0 6.0 0.00 0.00 0.00 53 1011.1
20260503195957 52 10 2.0 3.0 0.00 0.00 0.00 55 1011.2
20260503195455 51 350 3.0 5.0 0.00 0.00 0.00 53 1011.3
20260503194951 52 74 3.0 5.0 0.00 0.00 0.00 51 1011.3
20260503194449 51 21 1.0 1.0 0.00 0.00 0.00 53 1011.3
20260503193943 51 34 6.0 9.0 0.00 0.00 0.00 53 1011.5
20260503193439 51 9 1.0 2.0 0.00 0.00 0.00 53 1011.5
20260503192935 50 352 2.0 3.0 0.00 0.00 0.00 53 1011.5
20260503192432 50 29 2.0 5.0 0.00 0.00 0.00 52 1011.8
20260503191927 51 12 2.0 2.0 0.00 0.00 0.00 53 1011.8
20260503191425 51 297 1.0 1.0 0.00 0.00 0.00 52 1011.7
20260503190921 51 358 2.0 2.0 0.00 0.00 0.00 52 1011.5
20260503190419 52 220 2.0 2.0 0.00 0.00 0.00 50 1011.7
20260503185915 53 89 3.0 3.0 0.00 0.00 0.00 50 1011.3
20260503185412 51 162 3.0 5.0 0.00 0.00 0.00 51 1011.7
20260503184911 51 16 2.0 2.0 0.00 0.00 0.00 50 1011.7
20260503184408 51 52 7.0 10.0 0.00 0.00 0.00 52 1011.6
20260503183904 51 35 3.0 5.0 0.00 0.00 0.00 50 1012.0
20260503183401 51 321 2.0 5.0 0.00 0.00 0.00 50 1012.1
20260503182858 52 64 5.0 6.0 0.00 0.00 0.00 49 1012.2
20260503182357 51 67 0.0 1.0 0.00 0.00 0.00 52 1012.0
20260503181853 52 76 3.0 3.0 0.00 0.00 0.00 48 1012.2
20260503181351 52 57 3.0 3.0 0.00 0.00 0.00 48 1012.1
20260503180847 50 27 2.0 2.0 0.00 0.00 0.00 47 1012.4
20260503180345 51 70 2.0 3.0 0.00 0.00 0.00 49 1012.2
20260503175841 50 313 3.0 5.0 0.00 0.00 0.00 49 1012.4
20260503175339 51 256 2.0 3.0 0.00 0.00 0.00 46 1012.6
20260503174835 52 215 3.0 3.0 0.00 0.00 0.00 47 1012.5
20260503174333 51 157 1.0 2.0 0.00 0.00 0.00 47 1012.5
20260503173828 50 282 1.0 2.0 0.00 0.00 0.00 51 1012.7
20260503173325 51 159 2.0 3.0 0.00 0.00 0.00 49 1012.7
20260503172821 50 47 3.0 6.0 0.00 0.00 0.00 50 1012.8
20260503172319 49 178 5.0 7.0 0.00 0.00 0.00 49 1013.0
20260503171815 48 35 5.0 6.0 0.00 0.00 0.00 49 1012.8
20260503171312 48 283 4.0 6.0 0.00 0.00 0.00 47 1012.8
20260503170809 50 318 7.0 9.0 0.00 0.00 0.00 48 1012.9
20260503170305 50 78 2.0 2.0 0.00 0.00 0.00 46 1012.9
20260503150658 47 321 4.0 5.0 0.00 0.00 0.00 51 1013.8
20260503150154 46 43 6.0 7.0 0.00 0.00 0.00 58 1013.9
20260503140118 44 341 4.0 6.0 0.00 0.00 0.00 61 1014.2
20260503131048 42 27 1.0 1.0 0.00 0.00 0.00 71 1014.0
20260503130545 42 33 2.0 2.0 0.00 0.00 0.00 70 1014.3
20260503110436 36 55 2.0 2.0 0.00 0.00 0.00 84 1014.0
20260503090327 36 38 2.0 3.0 0.00 0.00 0.00 87 1013.6
20260503081254 37 38 2.0 2.0 0.00 0.00 0.00 85 1013.4
20260503080750 37 352 1.0 2.0 0.00 0.00 0.00 85 1013.8
20260503080248 37 344 2.0 2.0 0.00 0.00 0.00 85 1013.8
20260503072724 37 340 0.0 0.0 0.00 0.00 0.00 85 1013.5
20260503072221 37 38 1.0 1.0 0.00 0.00 0.00 84 1013.3
20260503071718 37 44 3.0 3.0 0.00 0.00 0.00 84 1013.8
20260503071215 37 10 1.0 1.0 0.00 0.00 0.00 85 1013.8
20260503070711 37 32 1.0 1.0 0.00 0.00 0.00 84 1014.0
20260503070209 37 35 1.0 2.0 0.00 0.00 0.00 85 1013.9